Location: Unspecified
(49.2170°N, 0.0000°E)
Time: 04:50:50
(UTC+00:00)

Transit 2A - Pass Details

Date: 22 June 2019
Orbit: 595 x 964 km, 66.7° (Epoch: 22 July)

Event Time Altitude Azimuth Distance (km) Brightness Sun altitude
Exits shadow 00:29:03 26° 199° (SSW) 1,795 7.3 -17.1°
Maximum altitude 00:32:47 70° 121° (ESE) 1,016 6.5 -17.0°
Drops below altitude 10° 00:39:00 10° 39° (NE) 2,645 9.7 -16.9°
Sets 00:41:30 0° 38° (NE) 3,555 10.6 -16.8°
